Location: Clanezzo
(45.7500°N, 9.6000°E)
Time: 05:53:28
(UTC+00:00)

Gbstr 26 Del rocket - Pass Details

Date: 05 October 2021
Orbit: 492 x 1263 km, 51.8° (Epoch: 20 October)

Event Time Altitude Azimuth Distance (km) Brightness Sun altitude
Rises 18:39:52 0° 262° (W) 3,769 8.4 -19.2°
Reaches altitude 10° 18:42:25 10° 266° (W) 2,915 7.6 -19.6°
Maximum altitude 18:49:35 62° 347° (NNW) 1,335 4.8 -20.8°
Enters shadow 18:54:56 23° 61° (ENE) 2,402 5.6 -21.7°
